Starlink 5906

operational
NORAD ID: 55962 Int'l Des: 2023-037 Owner: SPXS Country: US Constellation: starlink
LEOCIRCULAR

About Starlink 5906

Description loading...

Live Position

Loading 3D Globe...

Upcoming Passes

Altitude History

Altitude vs Time

uPlot chart will show altitude changes over time

Two-Line Element Set

1 55962U 23037BA 25259.20514462 -.00000114 00000-0 -17546-5 0 9995
2 55962 70.0011 344.5304 0003102 269.0272 91.0531 14.98332050138337
Epoch: Sep 16, 2025 • Age: 8 hours

Current Status

Altitude 594.3 km
Velocity 7.56 km/s
Sub-Earth Point -65.62°S, 34°E
Launch Date Mar 17, 2023
Age 2.4 years
Type internet

Technical Details

Classification Payload
Mass 305.00 kg
Dry Mass 290.00 kg
Total Mass 305.00 kg
Length 0.20 m
Diameter 2.80 m
Span 9.00 m
Shape Box + pan
Manufacturer SPXS
Bus Type Starlink
Phase Status In Orbit
Owner/State SPXS/US

Large Constellations

Loading constellations...